{"data":{"norad_id":58488,"epoch":"2026-05-24T23:30:28.405152Z","epoch_age_seconds":79880,"freshness":"FRESH","line1":"1 58488U 23186R   26144.97949543  .00000145  00000+0  14804-4 0  9990","line2":"2 58488  43.0033 352.8117 0001471 255.9256 104.1432 15.27577931137555","mean_motion":15.27577931,"eccentricity":0.0001471,"inclination_deg":43.0033,"raan_deg":352.8117,"arg_perigee_deg":255.9256,"mean_anomaly_deg":104.1432,"bstar":1.4804e-5,"rev_number":13755,"period_min":94.266876391526,"perigee_km":482.0460099909,"apogee_km":484.06457276303,"semimajor_km":6861.192291377,"source":"CELESTRAK","updated_at":"2026-05-25T13:38:18.653088Z"}}